Location: DARK SKY Beskydy - Park tmavé oblohy, www.darkskybeskydy.cz
(49.4926°N, 18.5016°E)
Time: 03:57:23
(UTC+01:00)

SR - Visible Passes

Search period start: 23 February 2024 00:00
Search period end: 04 March 2024 00:00
Orbit: 573 x 868 km, 66.7° (Epoch: 22 February)

Date Brightness Start Highest point End Pass type
(mag) Time Alt. Az. Time Alt. Az. Time Alt. Az.
23 Feb ? 17:55:43 10° W 18:00:08 22° NNW 18:04:24 10° NNE visible
23 Feb ? 19:41:45 10° NNW 19:44:10 13° N 19:46:29 10° NNE visible
23 Feb ? 21:24:53 10° NNW 21:26:06 13° N 21:26:06 13° N visible
24 Feb ? 18:48:29 10° NW 18:51:26 14° NNW 18:54:19 10° NNE visible
24 Feb ? 20:33:00 10° NNW 20:35:38 14° N 20:35:38 14° N visible
24 Feb ? 22:14:46 10° NNW 22:14:53 10° NNW 22:14:53 10° NNW visible
25 Feb ? 17:55:02 10° WNW 17:58:49 18° NNW 18:02:28 10° NNE visible
25 Feb ? 19:40:43 10° NNW 19:43:00 12° N 19:45:10 10° NNE visible
25 Feb ? 21:23:03 10° NNW 21:24:25 15° N 21:24:25 15° N visible
26 Feb ? 18:47:49 10° NNW 18:50:16 13° N 18:52:39 10° NNE visible
26 Feb ? 20:31:17 10° NNW 20:33:57 16° NNE 20:33:57 16° NNE visible
26 Feb ? 22:12:54 10° NNW 22:13:12 11° NNW 22:13:12 11° NNW visible
27 Feb ? 17:54:26 10° NW 17:57:34 15° NNW 18:00:36 10° NNE visible
27 Feb ? 19:39:20 10° NNW 19:41:50 13° N 19:43:29 12° NNE visible
27 Feb ? 21:21:10 10° NNW 21:22:44 17° N 21:22:44 17° N visible
28 Feb ? 18:46:53 10° NNW 18:49:05 12° N 18:51:14 10° NNE visible
28 Feb ? 20:29:26 10° NNW 20:32:17 18° NNE 20:32:17 18° NNE visible
28 Feb ? 22:11:04 10° NNW 22:11:32 12° NNW 22:11:32 12° NNW visible
29 Feb ? 17:53:49 10° NW 17:56:21 13° N 17:58:49 10° NNE visible
29 Feb ? 19:37:38 10° NNW 19:40:36 15° NNE 19:41:49 14° NNE visible
29 Feb ? 21:19:16 10° NNW 21:21:05 20° NNW 21:21:05 20° NNW visible
01 Mar ? 18:45:36 10° NNW 18:47:55 13° N 18:50:09 10° NNE visible
01 Mar ? 20:27:32 10° NNW 20:30:38 22° NNE 20:30:38 22° NNE visible
01 Mar ? 22:09:17 10° NW 22:09:53 13° NW 22:09:53 13° NW visible
02 Mar ? 19:35:48 10° NNW 19:39:19 18° NNE 19:40:12 17° NE visible
02 Mar ? 21:17:23 10° NNW 21:19:28 23° NNW 21:19:28 23° NNW visible
03 Mar ? 18:43:58 10° NNW 18:46:41 14° NNE 18:49:19 10° NE visible
03 Mar ? 20:25:38 10° NNW 20:29:03 29° N 20:29:03 29° N visible
03 Mar ? 22:07:35 10° NW 22:08:18 14° NW 22:08:18 14° NW visible
